RH
26 26 28 37 39 31 24 22 22 18 16 20 20 22 22 23 29 28 25 28 27 26 29 31 32 33 32 31 30 30 29 28 29 31 38 55 64 60 58 57 60 68 71 69 67 62 52 43 35 28 28 26 21 22 25 28 28 28 28 28 28 26 26 25 23 22 19 19 17 13 10 10 15 18 18 17 19 31 40 57 81 88 93 97 99 96
32 42 41 35 30 24 21 19 18 17 18 20 21 23 21 24 31 29 27 28 27 28 29 34 38 36 34 33 32 30 28 26 26 29 37 49 61 69 71 69 67 68 69 69 65 60 52 41 34 30 28 27 24 23 27 29 29 30 30 31 31 29 29 29 27 26 24 22 20 17 12 10 17 21 20 20 22 38 54 64 77 85 92 98 100 99
51 62 45 26 23 22 21 21 19 19 19 21 25 25 27 37 41 33 35 38 30 26 29 34 36 33 33 32 31 30 28 27 25 27 29 29 37 56 73 77 77 76 74 77 73 62 51 42 37 33 30 28 26 26 27 29 29 30 31 31 31 30 30 32 31 29 27 25 22 19 15 11 13 18 22 23 23 35 55 73 84 87 90 98 101 101
64 64 37 24 27 23 23 22 20 20 21 24 25 27 30 38 37 31 42 47 32 25 28 30 31 31 31 29 31 30 27 28 27 24 24 22 20 30 60 83 85 81 81 87 86 69 53 48 42 33 30 29 28 29 30 31 30 29 31 32 31 29 29 31 33 31 29 28 25 21 19 15 11 14 18 22 25 29 42 64 81 85 87 97 101 101
57 51 34 31 31 27 26 24 21 21 21 22 22 26 27 27 29 27 34 38 27 29 37 33 31 34 36 35 34 31 29 28 27 25 22 22 21 24 49 76 82 80 82 89 91 77 59 52 43 30 29 31 31 33 33 33 32 30 32 33 32 30 28 30 33 32 29 28 27 22 20 19 13 13 13 17 22 23 38 69 88 87 86 93 99 100
43 38 35 35 34 32 30 25 24 23 23 22 20 25 27 25 26 22 25 25 20 34 48 40 31 30 37 39 34 34 35 31 29 27 22 22 29 37 47 54 55 58 73 87 88 80 66 51 39 30 31 35 35 37 34 32 32 29 31 33 33 33 30 30 32 32 29 27 28 24 20 20 16 14 12 14 19 20 41 81 99 93 86 88 95 98
40 37 38 37 36 35 31 27 25 23 24 24 21 24 24 23 24 22 24 22 24 46 55 38 26 24 33 38 35 37 39 39 37 29 32 46 50 47 43 39 38 47 71 89 81 72 64 48 37 35 37 40 39 37 33 32 32 31 33 34 34 35 33 33 31 31 30 27 28 26 23 23 21 18 15 14 17 20 40 74 95 99 95 90 95 97
43 39 38 36 35 33 31 28 24 22 24 25 23 23 22 23 23 21 23 23 33 50 45 33 30 30 36 39 38 45 44 43 40 29 41 68 66 50 44 45 46 51 74 91 82 70 61 46 40 44 45 44 40 35 31 32 33 32 31 29 27 28 29 30 29 30 30 27 27 27 25 25 25 24 21 17 16 16 33 63 85 98 100 96 95 95
41 37 37 34 34 32 31 29 24 24 25 24 24 23 23 25 22 22 25 25 34 39 28 28 35 34 38 40 43 53 48 39 35 31 41 59 60 51 48 49 50 52 67 85 84 71 58 49 50 54 52 47 38 32 30 30 30 26 22 18 16 16 17 18 20 22 23 23 23 24 24 26 27 27 25 23 21 18 27 52 81 98 100 100 96 91
39 40 36 33 34 31 29 27 25 25 25 24 25 25 24 24 21 24 27 27 34 34 23 28 34 27 27 34 43 52 54 54 51 44 44 49 51 49 47 46 48 50 57 72 77 69 61 59 62 62 56 46 34 28 26 24 23 19 15 14 11 10 9 8 9 12 14 16 17 18 19 21 24 28 28 26 25 21 19 39 75 98 98 98 98 93
35 39 39 37 35 32 29 28 26 25 26 25 26 26 24 30 31 26 28 30 29 25 25 33 35 26 30 47 58 56 60 72 70 57 50 47 46 47 49 49 49 53 58 66 73 73 68 66 67 67 57 41 30 25 23 21 21 19 17 15 11 7 6 5 6 6 7 9 10 11 11 12 16 24 30 29 26 22 18 33 65 88 94 97 101 99
32 33 37 39 38 36 33 32 29 27 28 27 28 27 26 40 43 27 27 34 28 26 31 35 33 34 51 70 69 53 49 63 73 73 68 58 53 56 59 56 54 62 73 80 82 75 64 63 69 68 52 36 29 27 27 26 26 25 21 16 10 6 5 5 5 5 5 5 5 6 7 7 10 18 28 31 28 21 18 28 46 67 81 89 97 100
45 34 31 36 39 40 38 37 33 29 30 28 29 29 28 38 38 26 30 36 32 31 29 26 27 38 57 66 55 41 41 55 69 77 78 73 71 71 70 71 70 70 77 85 82 68 61 68 73 62 43 35 34 33 31 29 27 23 19 13 8 6 5 5 5 5 5 5 4 5 6 6 8 17 28 32 29 20 16 22 32 49 67 73 83 95
48 36 33 34 37 39 38 39 36 32 31 29 30 30 29 33 30 29 36 34 29 27 22 18 19 31 53 58 49 46 53 62 63 63 67 74 82 81 77 81 82 74 73 77 71 64 68 73 66 50 40 38 36 32 28 24 20 16 12 9 6 5 5 5 6 5 5 5 5 4 5 6 9 18 29 34 30 19 13 20 27 39 51 54 68 87
40 40 40 34 34 38 38 37 36 33 31 30 31 30 31 30 26 29 37 33 26 22 22 21 15 30 56 57 50 53 58 61 59 55 58 64 76 85 83 82 81 75 68 66 64 67 73 68 55 46 42 38 32 27 22 16 11 10 8 7 6 6 6 6 5 6 5 5 5 4 4 6 9 19 30 35 31 17 12 21 28 43 53 50 60 78
37 41 39 33 35 36 37 38 36 36 36 34 31 31 33 30 24 28 34 32 25 21 27 27 15 27 50 52 53 58 58 60 60 57 57 61 69 79 82 81 78 72 65 63 68 74 72 61 51 44 38 32 28 22 15 9 7 7 7 7 7 7 7 6 5 5 5 5 5 4 4 4 8 18 28 36 33 16 11 18 28 55 73 63 61 70
40 39 37 36 36 35 37 40 38 38 38 35 31 31 31 26 23 27 30 29 25 23 31 30 18 18 28 39 54 57 53 58 61 58 58 64 72 77 83 85 80 74 73 74 76 72 61 49 41 35 30 26 22 16 11 7 6 7 7 8 9 8 7 6 5 5 4 5 5 5 5 4 6 16 27 36 36 19 9 15 23 46 71 71 66 69
41 42 41 38 36 37 38 39 40 39 36 34 32 32 30 24 23 25 27 28 26 26 29 27 23 17 15 33 53 54 55 61 64 63 62 68 76 81 86 90 88 84 82 78 69 56 44 37 32 28 24 20 16 12 9 7 7 7 8 9 9 9 7 6 6 5 5 4 5 5 5 5 5 12 24 34 39 25 9 13 18 27 58 80 77 71
44 45 45 41 38 39 39 40 42 41 37 35 33 33 31 25 22 23 25 28 28 28 29 27 25 21 24 40 44 43 59 77 80 77 73 75 78 77 77 81 84 83 78 71 59 48 42 37 33 28 23 18 14 11 8 7 8 8 9 9 9 9 8 7 6 5 5 4 4 5 5 6 4 8 20 30 39 33 13 10 14 17 52 92 90 76
47 45 46 46 42 40 40 42 44 41 38 37 34 35 34 27 23 24 26 29 30 32 34 31 27 29 38 40 27 26 46 66 80 86 84 83 80 73 68 66 67 67 65 61 54 50 47 43 38 32 25 19 15 13 10 9 9 8 9 9 9 10 9 9 7 5 6 4 4 5 4 6 5 5 15 26 36 39 22 10 12 13 44 91 101 87
50 48 50 48 44 44 44 45 45 43 44 44 39 37 34 26 24 25 24 27 30 33 38 37 30 30 37 31 21 24 28 30 48 67 72 72 69 66 61 56 56 56 57 56 53 51 50 47 43 35 26 21 19 16 12 11 10 9 10 10 10 11 10 9 8 6 6 5 4 5 4 5 6 4 10 21 31 40 31 16 10 10 31 77 104 97
59 52 51 51 53 56 51 45 44 44 46 48 45 43 36 25 22 25 23 23 24 27 35 40 34 29 30 28 26 27 23 19 27 38 41 38 36 39 39 38 41 44 48 50 49 49 48 45 40 32 25 22 20 17 14 12 12 10 11 12 11 12 11 10 10 7 7 7 5 6 4 4 6 5 7 15 25 36 37 25 13 8 20 58 96 101
66 59 56 56 59 59 53 46 44 44 45 46 47 46 37 25 23 25 23 22 22 23 29 35 35 33 33 31 30 29 27 24 23 24 24 19 15 18 19 20 24 26 30 33 34 35 35 32 29 23 21 20 18 17 15 13 14 13 13 13 12 13 12 10 10 9 8 8 6 6 6 4 4 5 6 10 19 30 36 33 21 10 13 35 70 90
71 67 63 63 63 60 55 48 46 47 45 47 52 50 37 26 24 24 23 24 22 22 26 29 33 39 40 34 32 33 32 30 28 27 25 22 21 21 20 19 20 19 20 21 21 22 21 20 21 20 20 20 18 18 18 16 16 15 15 15 14 14 13 12 11 10 9 8 7 6 6 5 4 5 6 7 13 23 32 36 30 17 11 19 42 64
74 69 64 70 72 66 61 57 58 59 53 52 57 51 39 30 25 22 22 23 22 22 24 26 30 36 39 35 35 37 35 34 35 33 32 31 30 30 29 28 27 25 24 24 22 22 22 22 24 24 25 25 25 24 22 19 18 17 17 16 16 15 15 13 12 11 10 8 8 7 6 6 5 5 7 7 9 17 27 34 34 27 15 13 27 42
76 69 64 69 69 66 69 69 67 63 56 55 54 46 40 35 27 24 22 19 21 22 20 23 27 27 30 33 34 37 38 37 38 38 39 39 38 37 36 34 33 33 33 33 33 33 33 33 33 33 31 29 29 30 28 23 19 19 19 19 19 17 15 14 12 11 10 9 8 8 6 6 6 5 7 10 10 12 21 29 33 34 24 13 18 30
77 74 68 62 58 63 70 67 61 57 55 56 53 47 45 38 29 25 23 21 21 20 19 25 26 22 25 29 28 31 33 33 34 35 36 38 39 37 36 34 34 36 37 40 42 42 42 43 44 44 42 39 35 33 32 28 22 21 22 21 21 19 15 13 12 11 10 9 8 8 7 6 7 7 9 13 14 10 14 24 29 34 33 20 13 20
82 81 75 63 55 58 58 56 57 59 59 57 53 48 43 38 32 27 23 22 22 19 21 25 22 19 22 25 24 25 26 25 26 26 27 29 30 29 28 28 28 30 32 33 35 35 37 40 43 46 49 48 45 40 37 33 28 24 24 24 22 18 14 12 12 11 11 10 9 8 7 7 9 12 13 16 18 13 9 18 25 29 34 31 18 13
86 85 81 70 62 57 52 56 61 60 59 60 58 54 45 37 35 32 26 24 23 21 21 21 19 18 19 20 20 21 21 20 20 20 19 20 20 20 20 19 19 20 21 21 22 24 27 30 36 41 47 51 52 49 44 38 33 29 26 25 22 16 13 12 12 13 12 11 11 8 7 9 11 16 21 21 22 19 10 11 21 25 28 33 29 16
86 87 85 80 75 65 57 61 66 64 64 66 65 61 52 41 38 38 32 26 23 22 22 21 20 18 17 18 19 19 18 19 19 19 18 17 17 17 15 14 15 15 16 17 17 20 23 26 30 36 45 54 58 56 51 44 37 31 28 25 20 14 13 13 14 14 13 12 12 10 8 9 11 17 24 27 26 24 15 8 14 22 23 27 31 25
85 87 87 85 83 78 70 67 68 68 68 67 63 59 52 45 45 43 35 29 25 23 23 22 19 18 19 18 18 18 18 19 19 18 17 15 15 14 13 13 13 14 15 16 17 21 25 29 31 32 42 57 63 60 54 47 38 33 29 23 17 15 15 16 15 15 14 13 13 12 9 8 11 15 24 31 32 28 20 9 8 18 22 22 26 29
85 86 87 86 85 83 78 73 71 66 62 65 64 59 54 52 51 47 39 31 27 24 24 22 20 19 20 19 19 20 18 18 19 17 15 14 14 13 13 13 13 14 16 18 23 27 29 32 34 32 38 55 65 60 53 46 39 34 28 21 18 18 19 18 17 15 14 14 13 13 11 9 10 15 24 33 36 31 23 12 6 12 20 21 21 26
86 90 90 88 88 85 80 79 75 65 65 77 76 64 58 55 51 47 41 34 31 28 24 23 23 23 22 20 20 22 21 19 18 17 15 13 13 13 13 13 14 16 19 23 28 32 33 34 35 32 38 54 64 59 49 44 40 34 27 21 21 21 20 18 17 15 14 13 13 12 11 10 12 19 29 37 39 34 23 13 7 8 16 21 20 21
83 88 89 87 87 86 83 82 76 70 78 91 84 68 62 60 54 48 43 38 36 32 27 26 27 26 25 22 19 23 28 24 17 16 15 13 13 13 12 13 16 18 23 28 31 34 35 36 35 32 38 53 62 56 46 42 40 35 27 24 23 22 20 19 17 15 13 12 12 12 12 14 20 30 40 44 42 35 24 14 9 6 11 18 21 20
80 84 89 87 84 85 85 84 82 83 89 91 82 73 69 64 58 52 46 43 41 35 30 28 26 30 37 33 22 22 26 23 17 15 14 12 13 13 12 14 17 20 25 31 33 35 37 38 36 33 39 54 61 52 43 42 40 33 27 25 24 22 20 18 15 14 14 13 14 15 17 24 34 44 50 51 47 39 27 17 12 8 8 13 18 20
67 76 83 85 84 85 86 88 91 92 89 84 81 78 73 67 62 56 50 51 48 38 35 34 28 34 48 43 27 23 24 20 18 16 13 13 13 12 12 14 17 21 27 32 34 36 38 38 35 33 41 56 58 48 43 42 37 30 27 26 25 22 19 16 14 14 15 16 17 20 26 37 48 54 56 56 53 46 37 28 21 16 12 11 13 16
51 66 78 83 84 84 85 91 94 92 89 87 84 82 77 73 71 64 54 55 56 46 45 49 40 41 52 43 26 26 26 20 18 15 12 14 13 11 13 13 15 22 28 32 33 35 36 35 32 34 45 55 54 47 45 41 32 28 27 26 23 20 16 15 16 18 19 19 21 29 40 51 58 59 57 55 52 49 46 42 36 29 24 19 16 15
42 59 74 82 85 84 84 88 92 93 93 91 87 84 78 72 72 68 59 62 68 58 51 52 43 40 47 38 27 30 28 22 22 17 13 15 14 12 14 13 15 23 28 30 33 33 33 31 29 35 47 54 53 49 44 37 30 29 28 25 21 17 15 16 19 22 22 23 29 42 56 63 63 60 56 52 51 51 53 53 49 44 38 33 28 24
33 51 69 82 88 87 84 84 89 95 95 91 89 85 78 72 71 70 69 75 78 66 53 48 41 37 37 32 29 33 29 25 28 22 14 15 14 12 14 13 15 22 25 27 31 32 30 27 28 35 47 54 54 50 42 34 30 30 28 24 20 16 15 17 22 26 27 28 38 52 64 68 67 64 60 57 54 55 58 59 57 54 50 45 40 35
38 50 66 81 87 86 87 87 90 95 94 92 92 87 80 76 72 74 80 82 77 66 56 50 44 38 35 33 33 35 31 29 30 23 15 15 15 13 14 14 15 19 22 24 28 31 29 26 27 35 46 52 53 48 40 33 32 31 29 24 20 17 15 17 23 30 32 34 43 56 64 68 69 68 67 65 64 64 64 62 58 55 54 51 47 43
43 49 61 76 82 81 83 86 91 97 98 96 95 89 83 79 77 83 91 85 75 69 61 51 45 42 39 37 36 39 38 33 27 21 17 16 15 14 14 13 14 16 18 20 24 28 29 27 26 33 44 49 49 45 39 34 33 32 30 26 22 18 16 15 19 28 35 39 45 54 61 66 69 70 70 68 66 63 60 56 55 57 58 57 54 51
40 46 55 69 81 84 85 88 94 99 98 98 98 91 83 82 85 91 94 86 76 72 64 54 50 46 43 41 39 40 41 34 25 21 19 16 15 15 14 13 13 15 16 17 20 24 28 28 26 30 40 45 45 42 38 34 34 33 31 29 25 21 18 15 14 20 30 38 45 53 58 59 58 57 57 56 55 55 54 54 58 64 66 65 61 56
32 45 52 57 68 78 84 89 92 92 91 96 99 93 86 87 88 88 89 85 79 75 69 62 56 50 47 46 43 41 41 37 28 22 19 16 16 16 15 13 13 14 14 15 17 19 24 28 27 27 32 38 41 41 38 36 35 34 33 32 29 25 22 18 13 13 17 25 35 45 53 55 52 47 47 49 52 56 59 61 63 65 66 64 59 53
24 39 50 53 59 68 76 80 83 87 89 91 94 94 92 92 88 84 86 86 83 80 77 69 61 54 51 50 47 45 44 40 31 23 19 18 16 16 16 14 13 14 13 13 14 16 18 23 26 26 26 29 33 36 37 36 35 33 32 31 29 28 26 23 18 14 12 13 19 26 36 45 49 50 51 51 52 53 54 54 53 53 52 51 49 47
19 28 37 43 48 57 69 77 80 84 85 86 90 96 98 97 92 87 87 87 83 81 81 77 68 59 53 52 50 48 47 44 33 24 20 19 17 17 17 15 14 14 13 12 13 14 14 16 20 23 25 25 26 28 30 31 30 28 27 27 26 25 27 27 24 19 15 13 12 13 17 23 29 35 38 40 43 45 46 47 46 45 44 43 41 41
13 14 16 19 23 32 50 71 82 84 83 87 94 98 100 100 96 89 86 84 81 78 79 81 76 65 56 55 54 51 50 47 36 25 21 20 18 18 18 16 15 14 13 12 12 12 13 13 13 16 19 21 22 23 24 25 25 24 24 25 25 25 26 29 29 25 21 17 14 13 12 12 13 16 17 19 22 25 28 32 34 37 38 39 40 40
9 9 10 12 14 15 25 47 71 82 88 94 98 98 99 99 95 88 86 85 81 76 71 72 75 70 61 57 57 55 52 49 39 27 22 21 19 18 18 17 15 15 14 13 12 12 13 12 11 12 12 12 14 15 15 16 16 16 16 17 19 21 23 28 31 31 29 26 21 18 16 14 13 13 12 12 13 13 14 16 17 19 22 24 26 29
10 13 17 20 20 14 12 24 44 63 80 92 97 97 100 101 97 91 88 86 83 76 67 64 68 70 64 59 59 57 54 51 42 29 22 22 21 20 19 17 16 16 15 13 13 12 12 12 12 11 10 9 10 9 9 9 9 9 9 8 8 9 12 17 24 29 33 34 32 29 25 21 18 16 15 14 13 12 13 13 12 13 13 13 14 16
11 13 15 17 16 11 8 12 20 34 56 79 93 97 98 99 100 96 91 88 86 81 73 67 67 69 66 62 60 58 56 53 45 31 24 23 22 21 21 19 16 16 15 14 13 13 13 13 12 12 11 10 10 10 10 10 10 10 9 7 6 5 5 7 11 16 23 29 33 35 35 31 27 24 21 19 18 16 16 15 15 15 14 14 14 14
10 10 10 10 10 8 7 8 9 12 27 52 76 90 95 97 100 100 95 91 89 85 79 74 70 70 68 64 62 61 59 56 49 36 26 24 23 23 22 20 18 17 16 16 14 13 13 13 13 13 13 12 11 11 11 11 11 12 11 9 7 6 4 4 4 6 9 15 21 27 32 35 35 33 30 27 25 23 21 20 20 20 20 20 19 19
9 9 9 9 9 8 8 8 7 7 15 29 46 64 79 88 95 98 96 92 88 83 81 78 74 71 69 66 64 62 61 59 54 42 30 25 25 25 24 22 20 18 17 16 15 14 14 14 13 14 14 13 13 13 12 12 12 12 13 12 10 8 6 4 4 4 4 5 8 12 18 25 30 33 34 34 33 31 28 27 26 25 25 25 25 25
Wind_Speed
7 6 7 7 8 11 11 10 11 11 10 10 9 9 10 10 12 15 15 15 16 16 18 19 19 21 22 21 21 21 22 22 22 21 20 20 20 19 18 18 19 20 22 23 23 25 27 26 25 23 23 22 21 22 22 22 21 20 19 19 19 19 19 19 19 18 19 18 17 17 16 20 22 23 26 28 29 29 29 31 31 32 31 34 41 44
6 5 7 9 10 11 11 10 10 9 8 8 8 9 10 11 14 15 15 16 17 16 18 20 20 21 22 21 21 22 22 23 23 22 21 21 20 19 19 19 20 21 23 23 22 25 27 26 24 23 24 23 22 22 22 22 21 20 19 18 17 17 17 18 18 17 18 18 17 16 16 19 21 21 23 27 28 28 28 30 31 32 31 33 41 44
5 5 8 9 8 9 9 9 8 8 8 8 8 9 8 10 15 15 15 17 17 17 19 19 19 21 22 22 22 23 23 23 23 23 23 22 21 20 20 20 22 22 23 22 23 25 27 26 24 23 23 22 21 22 22 21 21 20 19 17 15 14 15 16 17 16 16 17 17 16 16 19 20 21 23 25 26 27 28 29 31 33 32 32 36 40
5 8 10 8 7 9 9 9 8 8 9 10 10 10 10 12 15 15 15 17 18 17 18 18 18 20 21 22 23 24 24 24 24 24 24 23 22 22 21 21 21 22 24 24 24 27 27 25 24 23 22 21 20 21 21 20 20 20 18 17 15 14 14 15 16 16 15 15 16 16 16 18 19 21 24 24 24 26 28 29 28 31 34 33 33 36
7 9 10 9 8 9 9 10 10 8 10 13 11 11 13 14 15 16 16 17 18 16 15 15 16 18 19 20 21 23 24 24 25 24 24 23 22 22 22 22 21 21 23 24 24 26 26 24 23 21 20 19 19 19 19 18 19 19 17 16 15 15 15 14 15 16 15 14 15 16 16 17 18 20 24 25 23 24 29 30 28 30 34 34 33 33
8 8 8 8 9 9 10 11 11 10 12 14 12 12 15 15 15 16 16 18 17 14 13 13 14 16 18 19 21 21 22 23 23 23 22 22 22 21 21 22 22 21 22 24 24 25 25 24 22 20 18 18 17 17 17 17 17 17 16 15 15 15 15 15 15 16 16 14 14 16 17 18 18 21 25 26 24 25 30 32 29 31 34 34 34 33
8 7 6 8 9 10 11 11 11 11 12 14 12 12 13 14 14 15 16 16 14 11 12 13 14 16 18 21 22 22 23 22 21 21 20 19 20 20 20 21 20 20 21 24 25 25 24 23 21 19 17 16 16 17 17 16 16 15 14 14 14 15 16 16 16 17 18 16 14 15 17 18 19 21 25 26 28 29 30 30 26 28 34 35 35 35
7 6 6 7 9 10 10 11 10 9 10 12 12 11 12 13 14 15 15 14 12 10 12 15 14 15 18 21 22 22 23 22 20 19 18 17 18 18 19 19 19 19 21 22 24 24 24 22 20 17 16 15 16 17 16 16 15 13 12 11 12 14 15 17 18 19 20 19 16 15 17 19 19 21 24 25 31 32 30 30 26 23 31 34 34 34
7 6 6 7 9 9 9 10 9 9 10 11 11 11 12 13 14 14 14 13 12 12 13 15 15 15 18 21 21 21 21 20 19 18 16 16 16 17 18 18 17 19 20 21 22 22 22 21 19 17 15 15 16 17 16 15 14 13 12 11 12 13 14 15 17 19 21 20 18 16 17 20 20 20 23 24 29 31 30 32 27 22 28 32 34 34
6 6 7 7 8 9 9 9 9 9 10 10 11 12 12 13 14 14 14 13 12 12 14 14 15 16 18 20 18 17 17 17 16 15 14 15 16 17 17 17 18 19 21 21 21 21 21 20 18 16 16 16 17 17 16 15 14 15 14 13 13 14 14 14 15 17 20 21 19 17 18 20 20 20 22 24 26 29 31 34 30 23 25 30 36 38
6 6 7 7 8 9 10 10 10 9 10 10 11 12 12 13 15 14 13 13 13 14 13 13 15 17 16 15 13 12 13 13 13 13 13 14 15 15 15 16 18 20 22 22 21 20 20 20 18 16 16 17 18 17 16 16 16 18 18 17 17 18 17 16 16 17 18 20 21 19 19 20 21 20 21 23 24 26 30 33 32 28 25 25 30 35
8 8 7 8 8 9 10 11 11 10 10 11 11 12 12 13 14 14 12 11 13 14 13 13 16 16 13 12 12 11 11 11 12 12 12 12 12 12 14 15 17 20 21 22 21 20 20 19 17 17 17 18 18 18 17 17 18 20 21 21 21 21 20 19 18 18 18 19 20 20 20 21 21 20 21 23 23 24 29 32 33 33 31 26 24 27
9 9 9 9 9 9 10 11 12 11 10 10 11 11 12 13 13 13 12 11 12 12 12 14 15 13 11 11 11 10 10 10 11 12 11 11 11 12 14 14 16 19 21 21 21 20 19 18 17 17 17 18 18 17 17 17 19 21 23 24 24 23 22 21 21 20 19 19 19 19 19 20 20 20 20 22 22 22 26 31 33 34 33 30 26 24
9 9 10 10 9 9 10 11 12 11 10 10 11 11 11 12 12 11 10 11 12 11 11 13 14 11 10 11 10 9 8 9 11 12 12 12 12 13 15 16 17 19 20 21 20 19 18 16 16 16 17 17 17 17 17 19 21 23 24 25 25 24 24 23 23 22 20 19 19 19 18 18 19 19 20 21 21 21 24 29 32 33 33 32 29 25
10 10 11 12 11 10 11 11 11 11 10 10 10 11 12 13 12 10 10 10 11 11 10 11 12 10 9 10 11 10 9 9 10 11 13 13 13 14 15 16 18 19 20 20 19 18 17 15 15 16 17 17 17 18 19 21 22 23 24 25 25 25 24 24 24 23 20 18 19 18 17 18 18 18 19 20 20 20 24 29 29 30 31 30 29 27
10 9 11 12 12 12 12 12 12 11 10 10 10 11 12 13 12 10 10 9 10 11 10 10 11 11 10 11 11 11 10 10 10 11 12 13 13 14 15 16 17 18 18 18 18 17 15 15 16 17 17 17 18 19 21 22 23 23 24 24 24 25 25 24 23 22 20 18 18 17 17 18 17 17 18 19 19 19 24 30 30 28 26 25 27 28
11 10 11 12 12 12 12 13 13 11 10 10 10 10 11 12 12 10 9 9 9 8 9 10 10 11 11 10 11 12 11 11 10 11 12 12 12 13 14 16 16 16 15 15 15 14 13 14 15 16 16 17 20 21 22 22 22 22 23 23 23 23 23 23 21 20 20 19 17 17 17 17 17 17 17 17 18 18 23 29 31 29 26 24 26 28
12 12 11 12 12 12 13 13 13 12 11 10 10 11 11 11 10 10 9 8 8 7 8 10 10 10 10 9 10 12 12 11 10 10 12 11 10 9 10 13 15 14 13 13 12 12 13 14 14 15 17 19 21 22 22 22 22 22 22 21 21 21 21 21 19 18 19 19 17 16 16 17 17 16 16 17 16 17 21 27 30 31 29 26 27 27
13 13 11 12 13 13 13 13 12 12 11 11 11 11 11 11 10 10 9 8 8 7 7 9 10 9 9 8 9 11 11 10 9 10 11 12 10 9 9 11 13 13 13 13 13 13 13 14 15 17 19 21 22 22 21 22 22 21 21 21 20 20 20 20 19 18 18 19 18 16 15 16 18 17 16 17 16 15 18 24 29 32 32 29 28 28
14 14 13 12 12 13 12 13 13 12 11 11 11 11 11 12 11 10 9 8 8 7 6 8 9 7 6 7 8 8 10 11 11 11 11 12 12 12 12 12 12 13 13 13 14 15 16 16 18 19 21 22 23 22 22 22 22 21 21 21 19 19 19 19 20 19 18 18 18 17 16 15 17 18 17 16 16 15 16 21 27 32 35 33 30 30
13 13 14 13 13 13 12 12 13 13 12 11 11 11 10 11 11 10 9 8 7 7 5 7 8 6 5 7 7 7 8 10 12 13 14 15 16 16 16 15 14 14 14 15 17 18 19 20 21 22 22 24 24 23 23 22 22 21 21 20 19 19 19 19 20 20 19 18 18 18 17 15 15 18 18 17 17 16 15 18 25 31 36 36 33 32
12 12 13 13 13 12 12 12 13 13 13 12 12 11 10 11 11 10 9 8 7 6 5 6 8 7 5 6 7 7 7 7 8 10 12 14 16 17 17 17 17 17 18 19 20 21 22 23 24 24 24 25 25 25 24 23 22 21 20 20 19 19 19 19 19 19 19 18 18 18 18 17 15 16 19 19 17 17 16 16 21 29 37 40 37 34
11 11 12 12 11 12 13 13 14 14 14 12 12 11 10 10 10 10 10 9 8 7 5 6 7 7 5 5 7 8 8 7 7 8 8 9 10 11 13 14 16 18 19 21 22 23 24 24 24 24 24 25 25 24 23 23 22 21 20 19 19 19 19 19 18 19 19 19 19 18 18 18 17 15 17 20 19 18 17 16 18 25 34 40 41 38
11 10 10 10 10 12 13 14 14 15 14 13 12 11 10 10 10 11 11 10 9 8 6 6 7 6 5 5 6 7 8 8 8 9 9 9 9 9 10 12 13 15 16 18 19 19 20 21 21 22 22 23 23 22 22 21 21 20 19 19 19 18 18 19 19 19 19 19 19 19 18 19 18 17 16 19 21 20 18 17 16 21 30 38 42 42
11 9 9 9 10 12 13 13 13 14 13 13 12 11 10 10 10 11 11 10 9 8 6 6 6 6 5 5 5 6 7 8 9 10 10 11 11 11 12 13 14 15 15 16 17 17 18 19 19 20 21 21 20 20 20 20 20 19 19 18 17 17 18 18 19 19 19 19 19 19 19 18 19 18 17 17 20 22 20 19 17 18 24 33 39 42
11 10 9 8 9 11 12 12 12 14 14 14 14 13 11 10 10 11 11 10 9 8 6 6 6 6 6 6 5 6 7 8 9 10 11 12 12 13 14 15 16 17 17 18 18 19 19 20 21 21 21 21 20 19 19 19 19 18 17 17 16 17 18 18 18 19 18 18 18 18 18 18 18 19 18 17 19 22 22 21 19 17 19 26 34 39
12 12 10 9 9 10 10 11 12 15 16 15 14 14 12 11 10 10 11 11 10 9 7 6 6 6 6 6 6 7 7 8 10 11 12 13 14 15 15 16 17 18 19 20 20 21 20 21 22 22 22 21 20 19 18 17 17 17 16 16 16 17 18 17 17 17 17 17 17 17 17 18 18 18 18 17 17 21 23 22 21 19 18 20 28 35
13 12 11 11 11 10 10 11 12 14 16 16 15 14 12 11 11 10 11 11 10 10 8 7 6 6 6 7 7 7 8 9 10 11 12 13 14 16 17 18 19 20 21 22 22 22 22 22 22 22 21 20 19 18 17 16 15 15 16 16 17 17 17 16 15 16 16 15 16 16 17 17 17 17 18 18 18 19 23 24 22 21 19 18 21 29
13 13 12 12 12 12 11 11 12 15 16 16 15 14 13 12 11 11 12 11 11 10 9 7 7 6 7 7 8 8 9 9 10 11 12 13 14 16 17 18 19 20 20 21 22 22 21 20 20 19 19 18 17 16 16 15 14 15 16 16 17 16 15 14 13 14 15 15 15 16 16 16 17 17 17 18 18 18 21 24 24 22 20 18 18 23
13 14 13 13 13 14 13 10 11 14 15 15 15 14 14 12 11 11 12 12 12 10 9 8 7 6 7 7 7 8 8 9 10 10 11 12 13 15 16 16 17 18 18 18 18 18 18 18 18 17 16 15 15 15 14 14 14 14 15 15 15 14 12 11 12 13 14 15 15 16 16 16 16 16 16 17 17 18 20 23 25 23 22 20 18 19
14 14 14 13 14 15 14 11 11 12 14 15 15 14 14 13 12 12 13 13 12 11 9 8 7 6 6 7 7 8 9 9 9 10 10 11 12 13 15 16 16 16 16 16 16 16 16 16 16 15 14 13 13 13 13 13 13 14 14 13 12 10 10 10 11 12 14 15 15 16 16 16 16 16 16 16 16 17 19 22 25 24 23 21 20 19
14 15 14 14 13 14 15 13 12 13 14 15 14 13 13 13 12 12 13 13 12 10 9 9 8 6 6 6 6 7 8 9 9 10 10 11 12 13 14 15 15 15 15 15 15 16 16 16 16 15 13 13 13 12 12 12 12 12 11 10 9 8 9 10 12 13 14 15 15 15 15 16 16 16 16 15 15 16 18 20 24 25 24 22 20 19
14 14 14 14 14 14 15 14 14 14 14 13 12 12 12 12 12 12 13 13 12 11 10 9 8 7 6 6 7 7 8 9 9 10 11 12 12 13 14 14 14 14 15 15 15 16 16 17 16 14 12 12 12 11 10 10 10 9 8 8 8 9 10 12 14 15 15 15 15 15 15 15 15 15 14 14 14 14 16 19 22 24 24 23 21 20
13 13 14 15 14 14 15 15 14 13 12 12 13 13 13 13 13 13 13 13 12 11 10 9 8 8 8 7 7 8 8 9 10 10 11 12 12 13 13 13 13 14 15 15 15 16 17 17 16 13 10 10 11 9 8 8 8 7 7 7 8 10 12 14 15 15 15 15 14 14 14 14 13 13 13 12 12 13 15 17 20 23 24 23 22 20
14 14 14 15 14 14 15 15 13 11 11 12 15 15 15 14 14 14 13 13 13 12 10 9 8 8 8 8 8 8 8 9 10 10 10 11 11 12 12 13 13 14 15 15 16 17 17 18 15 11 9 9 9 7 6 6 6 5 6 7 9 11 13 14 14 14 14 14 14 13 13 12 11 11 10 10 10 11 12 15 17 20 22 23 22 21
16 15 15 15 15 14 14 14 12 11 12 15 16 16 15 14 14 14 13 12 12 12 10 9 9 8 8 8 8 8 8 8 9 9 9 10 10 11 12 12 13 14 14 15 16 17 17 17 13 8 7 8 7 5 4 4 4 4 6 7 10 11 12 13 13 13 13 13 12 11 11 10 10 9 8 7 7 8 10 12 14 16 18 20 21 21
16 16 15 15 15 14 13 13 13 12 13 15 15 14 14 12 12 13 13 11 12 11 10 9 10 9 9 9 9 8 8 8 9 8 8 9 10 10 11 12 13 13 13 14 16 17 17 14 9 6 6 6 5 3 3 3 3 4 6 8 10 11 11 11 12 12 12 11 9 8 8 8 8 8 7 6 6 6 8 9 11 12 14 16 18 19
15 15 15 14 14 14 13 12 12 12 13 14 14 14 14 13 12 13 13 11 11 11 10 10 10 9 9 9 9 8 8 8 8 8 8 8 9 9 10 11 12 12 13 14 15 17 16 12 6 4 5 5 4 3 2 2 2 4 6 8 9 10 10 10 11 11 10 9 6 5 5 7 8 8 7 6 6 6 6 7 9 10 11 13 14 16
15 15 15 14 14 13 13 13 13 12 13 14 14 15 15 14 13 13 12 10 10 12 12 11 11 10 9 10 9 8 8 8 7 7 8 8 8 8 9 10 11 11 12 13 14 16 16 11 5 4 5 4 3 2 2 1 2 4 6 8 8 9 10 10 11 11 9 7 5 3 2 5 7 7 7 7 6 6 6 7 8 8 10 11 12 13
15 14 14 15 15 14 15 15 15 14 14 14 15 16 16 15 14 13 11 10 10 12 13 12 11 11 11 11 10 9 8 8 7 8 8 7 7 7 8 9 10 10 11 12 13 15 15 10 5 4 4 3 2 2 1 1 2 4 6 7 8 9 9 10 11 11 10 8 5 2 1 2 4 5 6 6 6 6 7 7 8 8 9 10 11 12
15 15 15 15 16 16 17 17 16 16 15 15 16 17 16 14 12 10 10 10 10 10 12 12 11 12 12 12 11 9 8 8 8 8 8 7 7 6 7 8 9 9 10 11 12 14 14 11 7 4 4 3 2 2 1 2 3 4 6 7 8 8 9 10 11 12 12 10 6 4 2 1 1 2 3 4 4 5 6 6 7 8 9 9 10 11
16 16 16 16 16 17 17 17 18 18 17 16 16 18 17 15 12 9 10 12 12 12 13 13 12 12 12 12 11 10 9 9 9 8 7 7 7 6 6 7 8 8 8 9 10 12 13 12 8 4 3 3 3 2 2 2 3 4 5 6 7 8 8 9 10 11 11 11 9 6 3 2 2 1 1 1 2 3 4 5 6 7 8 8 8 9
17 17 16 17 18 19 19 19 19 19 18 17 17 18 18 16 14 13 13 13 13 12 12 13 13 13 12 12 11 10 10 10 10 9 8 7 7 6 6 7 7 7 7 8 9 10 11 12 10 6 3 3 3 2 2 3 4 4 5 6 7 8 8 8 9 10 10 11 10 8 5 3 2 2 1 0 1 2 3 3 5 6 7 7 7 7
18 17 18 19 19 20 21 21 21 21 21 20 19 18 18 17 17 16 15 14 14 13 13 13 13 13 12 12 11 11 10 10 11 10 8 7 7 6 6 7 7 6 6 6 7 8 9 10 10 8 5 3 3 3 3 3 4 5 5 6 7 8 7 7 7 8 8 9 10 9 7 5 3 2 1 1 1 1 2 3 3 4 5 6 6 7
19 19 19 20 21 21 21 21 22 22 22 21 19 18 18 18 18 18 16 15 15 15 14 14 13 13 12 12 12 11 10 10 11 11 9 8 7 6 6 7 7 6 5 5 5 6 6 7 8 8 7 6 4 3 3 4 5 6 6 6 7 8 7 7 6 6 6 7 7 8 8 7 6 4 3 2 2 1 2 3 3 4 4 5 5 6
21 22 22 22 22 21 21 22 23 23 22 21 20 20 19 18 17 18 18 16 16 16 15 14 14 13 12 12 12 12 11 11 12 11 10 9 8 6 7 7 7 6 6 5 4 4 5 5 6 6 7 7 6 5 4 4 4 5 6 6 7 7 7 6 6 5 5 5 5 5 5 6 6 6 6 6 5 4 3 1 1 1 2 3 4 4
24 25 24 24 23 22 22 23 25 25 24 22 21 20 20 19 18 19 19 18 17 17 16 15 13 13 13 13 12 12 11 11 12 12 10 10 9 7 7 8 7 7 6 5 4 3 3 4 4 5 5 5 5 5 5 5 5 5 6 6 6 6 6 6 6 5 5 4 4 4 4 4 4 4 4 5 5 5 5 4 4 3 3 2 1 1
25 27 26 24 24 23 23 24 26 26 26 25 23 21 21 21 20 20 20 20 19 19 19 17 14 13 13 13 13 12 11 11 11 12 11 10 9 8 8 8 8 7 7 7 5 4 3 3 3 3 3 3 4 5 5 6 6 6 7 7 7 6 6 6 5 5 5 5 4 4 4 4 3 3 3 3 3 3 3 3 3 3 3 3 3 2
27 29 29 28 26 24 23 24 26 27 27 28 27 26 26 25 23 22 22 22 22 22 21 19 17 14 13 14 14 13 11 11 11 12 11 11 10 9 9 9 8 7 7 7 6 5 3 3 3 2 3 3 4 4 5 6 6 7 7 7 7 7 7 6 5 5 5 5 5 4 4 4 4 3 3 2 2 2 2 2 2 2 2 2 1 1
29 32 32 31 28 25 23 24 27 28 28 28 28 29 30 29 27 26 26 26 27 27 25 22 19 17 15 14 14 13 12 11 11 12 12 11 11 10 9 9 9 8 7 8 7 6 4 4 4 3 2 3 4 4 5 5 6 7 7 7 8 8 7 7 6 5 5 5 5 5 5 5 4 4 4 3 3 3 3 3 3 3 3 3 3 3
29 33 33 32 30 27 24 24 26 28 27 27 28 30 31 31 30 29 29 30 31 30 27 24 21 19 16 15 15 14 12 11 11 12 12 12 11 11 10 10 10 9 8 8 8 7 5 5 5 4 3 3 4 5 5 5 6 6 6 6 7 7 7 7 7 7 6 5 5 5 5 5 5 5 5 5 5 5 5 5 5 5 4 5 5 5
Wind_Direction
278 285 284 270 262 263 263 259 258 262 263 262 265 268 270 271 275 278 281 284 287 292 295 293 291 286 282 280 277 276 275 273 273 271 269 268 268 268 265 261 259 255 254 253 255 260 262 262 262 262 264 266 266 267 270 274 278 280 281 281 281 282 283 284 281 278 277 275 276 275 256 240 241 243 241 239 237 236 231 228 227 222 224 230 224 216
299 290 273 262 258 266 271 270 269 268 261 261 266 269 278 286 283 282 286 287 287 290 291 289 287 283 281 280 278 277 276 276 275 274 270 267 266 265 263 259 255 254 254 253 253 257 260 261 261 261 263 266 266 267 269 271 275 278 281 283 282 284 286 286 284 279 275 272 270 271 260 246 243 244 244 243 242 238 231 227 227 224 223 223 220 216
306 275 270 272 272 273 273 271 267 260 254 253 261 269 280 283 283 289 293 288 286 287 287 286 286 283 281 281 279 276 275 275 275 274 271 268 265 261 259 258 255 254 253 251 250 253 257 259 261 261 262 265 266 267 270 270 272 274 278 281 281 283 285 286 286 281 276 271 267 264 259 252 246 243 244 246 248 243 233 228 228 225 221 218 219 221
273 271 282 287 283 280 276 272 266 262 261 257 258 269 273 271 276 286 289 287 288 290 287 287 287 285 283 282 279 276 275 274 273 272 270 269 266 261 258 257 258 256 254 251 246 248 255 260 262 262 262 264 265 267 270 270 271 271 273 277 278 279 281 283 285 282 275 270 266 260 255 253 248 244 245 247 250 246 236 232 230 225 219 218 220 222
270 274 288 292 290 288 282 278 272 270 273 271 269 272 272 271 272 275 280 285 293 297 293 291 290 288 286 284 280 276 275 274 272 271 269 267 265 261 257 257 260 263 261 253 244 245 254 260 261 261 261 262 265 268 272 272 270 270 270 272 275 277 278 279 281 281 274 267 265 260 255 253 248 244 246 248 249 242 234 234 232 225 222 220 220 220
287 289 294 291 288 284 278 279 276 273 275 278 278 272 271 272 272 276 282 288 299 303 294 293 294 290 288 287 284 279 274 272 272 271 268 265 262 260 258 258 261 265 263 254 246 247 253 257 259 260 260 262 268 273 275 274 269 267 266 267 271 274 276 277 278 279 274 266 262 260 257 256 251 245 246 246 244 239 237 237 232 224 222 222 221 221
292 297 296 287 281 279 280 282 279 276 275 277 278 271 270 275 279 287 292 296 307 305 293 295 294 290 290 288 285 281 275 273 272 271 268 262 259 258 258 259 259 259 257 251 247 248 251 255 259 260 261 266 275 278 276 273 269 267 265 265 267 268 270 272 274 275 273 269 264 260 258 260 258 253 250 245 241 243 245 246 240 224 217 217 221 223
299 299 290 280 277 278 283 284 281 279 276 277 279 278 280 285 290 296 299 304 310 300 297 300 296 293 293 289 286 280 276 274 272 267 263 259 258 258 256 256 254 252 251 248 244 243 247 253 259 261 265 273 280 279 275 272 272 272 269 267 267 265 266 268 270 272 272 271 266 261 260 261 262 260 258 251 244 247 250 250 249 227 210 213 220 224
310 304 291 282 281 282 283 284 283 281 279 281 285 287 291 294 299 305 306 310 308 300 302 303 300 301 296 290 285 280 277 274 269 264 259 259 259 257 253 250 247 244 246 245 240 239 245 254 261 264 271 279 281 277 275 276 279 282 279 277 276 274 270 269 269 270 272 273 269 263 261 261 264 265 264 260 252 252 251 244 242 225 208 213 221 224
328 318 304 292 285 287 288 288 288 286 284 288 291 293 297 302 308 311 310 311 309 303 307 306 305 306 297 289 282 275 274 273 268 265 262 260 259 255 250 245 239 236 240 242 240 241 249 257 263 268 276 280 279 277 277 282 288 291 290 292 294 291 285 281 276 271 269 271 270 265 263 263 265 267 269 267 261 258 250 240 237 227 212 217 223 224
338 327 316 305 296 295 297 294 293 292 293 296 297 300 306 310 312 314 312 312 311 309 315 313 309 310 302 290 281 269 265 266 269 270 267 263 259 255 249 242 236 234 235 239 241 244 251 258 264 270 276 278 277 278 281 288 293 294 296 299 303 301 296 293 289 283 275 272 270 267 265 265 264 266 269 271 268 260 248 239 236 230 220 220 221 220
341 335 323 313 307 304 301 299 299 300 301 303 303 305 312 313 313 317 317 315 314 315 321 319 314 316 307 288 282 271 256 256 265 267 265 262 256 251 246 240 238 237 238 240 242 245 250 258 265 269 274 274 276 280 285 291 295 296 298 301 303 301 299 299 297 295 288 279 273 268 264 263 263 265 268 272 271 261 248 242 238 234 231 228 220 215
337 332 325 318 314 308 304 305 307 308 307 306 306 309 313 313 316 319 317 314 312 312 317 319 319 318 303 285 279 270 254 253 260 258 255 254 248 244 239 237 239 239 240 243 243 246 252 260 265 267 271 272 276 282 288 294 295 294 296 297 299 299 298 300 300 299 296 288 279 270 264 260 260 262 266 272 272 261 248 242 239 236 235 237 230 223
330 331 328 324 319 313 308 306 307 310 312 311 309 311 311 311 314 311 307 306 303 304 313 319 322 318 297 285 278 267 260 258 258 250 245 243 239 237 236 237 239 239 240 243 246 251 256 260 264 267 270 272 277 285 290 294 293 291 291 291 293 294 295 298 299 298 296 292 284 274 264 259 258 259 264 271 272 260 245 238 237 236 236 240 237 231
328 331 325 324 323 319 314 308 306 308 312 313 313 314 313 313 312 304 300 299 295 302 315 321 326 321 297 284 276 269 269 268 261 248 240 238 236 236 237 237 237 238 240 243 249 255 258 261 266 268 270 274 282 288 292 291 289 285 284 285 287 289 292 293 294 294 294 292 287 278 266 258 256 258 262 270 271 257 240 233 232 232 235 240 237 232
324 325 321 323 324 322 318 313 311 312 312 313 314 314 315 316 312 302 297 293 292 304 316 323 331 327 305 286 275 272 276 279 271 253 244 243 241 238 236 234 236 238 243 248 252 256 259 264 267 268 272 281 287 289 290 288 284 281 279 279 282 284 286 287 288 289 291 291 288 282 271 260 256 258 261 268 270 257 238 230 225 224 229 234 231 232
320 321 321 322 323 323 320 315 312 313 311 311 313 313 315 315 309 302 295 291 294 306 314 319 330 336 322 297 280 280 282 283 275 258 249 249 246 240 236 236 240 243 247 250 252 253 258 263 266 273 281 287 288 287 286 284 280 277 275 276 277 278 279 280 282 285 288 289 289 285 276 264 257 258 261 266 270 259 241 230 223 219 225 232 229 230
316 319 320 320 322 323 320 316 312 313 313 313 314 314 315 315 309 304 301 297 298 303 309 313 324 341 338 311 291 289 289 289 283 265 253 247 244 244 242 241 242 243 243 240 241 246 256 265 273 283 287 286 285 284 283 281 279 277 275 274 274 276 278 279 280 283 285 287 287 287 282 270 259 256 259 263 267 263 246 233 225 218 218 227 228 226
312 316 318 319 321 322 320 317 314 315 315 311 311 313 315 316 313 307 304 302 300 301 306 309 317 339 342 323 307 298 292 291 288 273 258 248 247 256 256 249 245 243 240 235 237 248 261 272 280 285 286 284 284 283 281 279 278 277 275 273 273 276 281 283 283 284 283 284 285 285 284 276 264 256 255 260 264 264 252 236 227 219 214 219 224 221
306 312 316 317 318 319 320 318 318 319 316 310 308 312 316 317 314 309 306 304 303 302 299 300 309 331 335 321 319 307 289 281 277 270 258 252 257 265 264 259 254 251 250 247 249 258 267 274 279 283 283 282 282 283 281 279 279 277 274 273 275 278 281 283 283 284 282 282 283 283 283 279 268 258 252 255 260 262 256 239 228 220 214 214 217 217
300 307 311 314 318 319 319 320 320 321 318 313 309 309 313 316 313 308 306 307 306 303 293 288 296 307 309 309 319 318 301 286 274 267 262 260 264 269 272 274 273 269 265 261 260 263 267 273 277 280 279 278 280 281 280 279 278 276 274 274 277 279 280 280 280 281 281 281 282 282 283 280 271 260 251 249 254 257 258 244 230 222 217 215 215 214
296 300 304 311 316 316 318 320 319 317 315 313 310 310 315 317 313 309 308 312 314 310 295 279 282 287 292 300 307 309 310 305 290 278 275 273 272 273 275 277 276 274 272 269 268 268 270 273 275 276 274 274 276 277 277 276 275 273 272 273 276 277 277 277 277 279 279 280 280 280 281 280 275 264 252 246 247 250 254 249 233 223 219 218 218 216
293 295 299 305 310 311 316 320 317 312 313 313 308 308 314 317 313 310 310 316 323 324 312 289 283 283 282 285 294 300 304 308 306 300 296 293 291 287 284 281 277 275 273 272 271 270 270 271 271 271 271 271 273 273 273 272 271 271 271 272 274 275 275 276 275 276 278 279 279 278 278 279 277 270 256 247 243 243 247 249 240 228 220 219 221 221
294 294 296 300 305 308 313 318 316 311 313 316 311 307 313 315 311 307 310 317 323 327 322 303 292 290 281 276 283 294 302 307 309 307 304 304 305 302 296 291 285 281 278 275 274 273 272 272 271 271 271 271 272 273 272 271 270 270 270 270 272 274 275 276 275 275 276 277 279 278 277 277 276 274 264 250 242 240 241 244 242 234 224 221 222 222
297 297 299 302 304 306 312 319 316 310 314 316 310 307 310 311 309 308 310 314 318 324 325 310 298 295 287 282 285 291 297 301 302 302 302 303 304 302 298 295 291 288 287 285 285 285 284 283 281 279 278 278 277 276 274 272 270 270 270 271 273 276 276 276 275 275 275 276 278 279 278 278 276 275 271 257 244 238 237 239 240 237 229 224 223 222
299 298 297 296 298 303 313 319 313 309 313 314 308 306 308 310 310 309 310 313 317 323 326 314 303 298 294 294 298 298 296 296 294 293 294 294 295 295 294 293 293 292 292 293 294 293 292 290 286 283 280 279 277 275 273 270 269 269 271 274 277 278 276 274 273 274 275 276 277 279 280 279 277 274 272 265 250 238 234 235 236 237 232 227 225 223
301 299 296 293 292 297 305 311 311 310 311 311 308 306 307 309 309 307 309 313 316 322 325 320 308 301 299 300 303 303 300 298 295 293 291 291 291 292 292 293 294 294 295 295 295 293 291 289 285 283 280 278 274 271 268 267 267 269 273 277 279 278 274 272 272 274 276 278 278 279 280 279 278 276 272 268 256 241 233 231 232 235 234 229 227 225
302 300 298 297 297 299 303 311 316 313 309 309 309 307 305 306 307 307 309 312 314 317 319 317 312 306 301 301 305 307 305 303 301 299 298 296 296 296 297 297 297 296 296 295 294 293 292 289 286 283 281 278 273 268 265 265 266 270 275 278 278 276 273 272 274 277 279 281 280 279 279 280 279 278 275 270 261 246 235 229 228 230 232 231 227 225
298 295 295 297 300 300 303 312 318 312 308 308 308 307 305 305 307 308 309 310 311 313 313 310 308 308 305 304 307 309 307 305 304 302 301 301 300 299 298 298 299 299 299 299 298 297 295 294 290 286 283 279 274 270 267 265 267 270 273 274 274 274 273 274 279 282 282 282 280 278 277 278 279 279 278 274 267 254 238 230 226 225 227 230 228 224
294 293 294 296 298 297 299 307 314 310 306 305 305 304 304 304 305 305 306 308 309 310 311 307 300 301 303 306 310 310 306 303 301 300 301 301 300 300 301 304 307 308 308 307 305 304 302 300 298 295 291 285 278 273 269 268 269 269 270 271 271 271 274 279 284 285 284 282 280 276 274 275 278 279 279 276 271 260 244 232 227 224 223 226 228 226
296 294 295 295 294 295 296 300 307 305 300 300 300 300 300 300 300 299 300 304 307 309 310 305 298 297 301 305 310 309 306 306 304 302 304 305 305 308 312 317 319 318 318 317 316 315 313 308 304 302 300 295 288 280 274 271 270 269 269 270 271 273 279 285 289 289 288 285 280 276 273 273 276 278 278 278 273 264 250 235 227 224 223 222 225 226
297 296 298 296 294 293 293 297 304 304 301 300 299 299 299 299 296 294 295 301 307 309 307 304 302 301 303 305 305 307 309 310 310 310 314 316 316 320 325 325 324 325 327 327 326 324 322 317 312 307 306 302 294 285 278 273 270 269 270 271 273 279 285 291 295 295 293 289 283 276 272 272 275 278 278 277 274 266 253 239 228 224 223 221 222 224
296 296 297 296 295 294 293 297 302 304 305 304 301 302 303 300 296 295 296 302 307 308 306 306 306 306 308 303 301 307 313 315 317 321 323 324 325 328 330 327 328 333 335 333 331 329 327 325 320 314 309 303 296 290 282 274 271 271 274 278 282 288 293 297 298 297 294 291 285 276 272 272 274 276 275 274 272 265 254 241 230 225 223 222 221 222
293 295 295 295 295 294 293 295 300 304 305 300 301 308 310 305 302 299 299 303 304 305 306 306 304 304 305 302 303 311 316 318 323 326 324 325 328 331 330 330 335 340 339 335 332 330 329 329 326 320 313 306 300 294 283 274 276 280 284 288 293 297 300 300 298 296 294 291 286 278 273 271 269 267 266 267 268 263 252 241 232 226 223 223 223 223
292 295 294 294 295 292 290 293 299 302 298 293 301 311 313 309 307 304 303 304 303 303 307 304 300 301 301 300 307 314 317 321 324 323 322 325 330 332 333 336 342 344 340 336 333 332 332 332 331 324 314 309 305 298 285 281 286 291 291 295 301 304 304 303 300 298 296 292 286 279 272 265 259 253 252 258 263 259 249 240 232 227 225 224 224 224
291 292 291 293 293 291 289 290 292 293 293 295 302 308 310 311 311 308 307 307 303 304 307 303 301 302 298 297 307 314 318 321 320 319 322 326 331 335 337 341 345 345 342 338 335 336 337 335 333 325 313 312 313 305 292 291 294 297 301 309 312 312 310 309 307 306 302 294 287 280 269 255 243 236 233 239 249 247 239 234 231 227 225 225 226 226
293 292 290 289 287 286 284 284 288 292 294 296 300 303 307 312 312 308 309 308 301 301 303 300 302 303 297 296 305 313 317 319 315 317 324 328 332 337 339 342 346 347 345 341 339 341 343 340 335 325 316 319 325 314 299 303 307 313 320 324 323 320 319 320 320 317 309 300 291 280 262 241 226 217 212 212 220 224 222 222 223 223 222 223 224 226
292 290 289 285 281 281 281 281 286 291 292 295 297 298 303 309 308 306 310 309 300 298 301 300 302 303 297 297 306 313 315 314 313 318 326 329 331 336 338 341 344 347 348 345 344 347 349 347 341 331 329 334 337 319 309 323 330 333 336 335 330 327 330 334 336 332 323 313 304 287 253 229 214 203 198 197 200 204 209 213 215 216 218 219 220 223
293 289 287 281 274 274 277 280 282 284 285 289 291 293 299 306 307 307 308 303 295 296 301 302 304 304 301 301 307 313 313 311 312 319 325 327 328 333 337 338 340 346 352 351 350 354 356 355 352 345 346 346 337 319 324 352 347 344 345 343 339 340 345 350 352 351 345 337 330 320 256 225 213 203 198 197 201 206 210 211 210 212 215 217 218 220
295 289 284 277 270 270 274 277 279 280 281 281 283 288 296 303 307 308 305 297 292 295 299 303 305 305 304 306 309 312 312 311 312 316 320 321 321 327 334 333 335 346 356 356 356 360 2 1 357 356 357 351 332 328 342 351 347 351 352 350 349 353 358 2 6 9 9 6 360 360 342 218 212 208 205 202 202 208 212 212 209 208 209 211 215 218
291 286 281 276 272 271 271 272 273 276 279 280 283 288 295 303 309 306 297 295 300 302 301 301 302 302 302 304 307 309 309 308 308 309 311 312 313 319 328 328 330 345 358 360 1 4 6 6 3 358 359 350 334 339 350 341 345 351 353 354 356 0 5 10 15 20 23 23 20 22 44 98 168 192 205 206 206 210 215 216 211 205 202 203 206 211
287 283 279 274 270 268 268 269 271 274 277 277 281 288 295 301 302 291 283 289 297 300 299 299 298 298 299 302 304 306 307 305 302 301 302 304 306 314 322 321 325 341 355 1 6 8 9 10 8 359 348 343 344 347 336 327 336 342 348 351 356 1 6 10 17 25 30 32 29 27 35 50 68 91 169 212 215 212 213 213 210 206 203 202 203 207
288 282 277 273 268 265 264 267 272 275 275 274 276 282 288 291 287 280 280 287 293 294 295 294 294 296 298 300 302 304 306 303 297 293 293 296 298 307 314 311 316 332 347 358 8 12 11 13 14 8 343 328 336 343 331 322 324 330 340 345 349 355 360 3 10 21 31 36 35 33 33 37 39 39 40 116 177 193 200 204 207 209 210 212 214 215
289 280 274 271 268 266 265 266 267 269 270 272 272 274 277 279 279 279 282 288 293 295 295 294 293 294 295 295 297 300 302 298 292 287 284 286 290 298 303 301 304 318 332 349 6 13 12 13 15 16 8 343 325 322 317 314 314 319 329 335 338 342 349 352 358 10 23 33 37 37 36 38 39 33 8 334 268 240 237 235 232 228 226 224 224 226
290 283 276 270 268 267 265 264 264 264 265 266 266 267 272 275 276 279 284 289 292 293 294 294 293 292 290 290 292 296 298 293 286 281 276 276 280 285 289 289 292 301 314 332 355 7 11 13 13 18 22 19 3 342 324 313 313 317 325 330 330 332 338 342 346 354 7 20 31 37 38 38 42 49 48 35 12 320 287 274 265 260 257 252 248 246
293 288 282 275 270 267 264 261 261 261 262 264 264 266 270 272 274 278 283 287 288 287 287 289 290 287 284 284 286 290 292 288 281 275 269 267 270 274 277 278 281 286 294 307 328 347 3 11 9 13 23 28 27 21 9 352 342 340 341 340 336 334 336 337 338 341 346 356 9 23 32 36 41 49 56 58 57 55 52 45 359 286 273 268 266 262
293 290 286 280 275 270 264 260 258 258 260 263 265 264 264 266 272 278 282 284 286 285 283 284 286 282 277 277 279 283 285 282 275 270 265 263 264 267 269 269 271 274 278 284 298 318 342 1 3 3 12 22 26 25 22 17 8 3 359 352 345 341 339 337 334 332 333 336 341 350 360 11 20 31 42 50 54 56 62 69 75 78 81 79 60 280
289 287 284 280 276 273 268 263 260 259 257 258 259 259 258 261 268 275 279 285 289 288 287 287 288 282 275 273 274 276 278 277 270 264 261 259 260 263 264 264 264 265 268 271 277 290 311 331 343 346 350 3 16 19 16 13 9 6 4 360 352 346 341 337 332 327 325 324 324 325 328 333 340 349 360 11 18 24 31 40 51 58 63 67 67 66
285 282 280 277 277 277 274 268 264 262 258 255 256 257 258 261 266 269 274 281 288 291 291 291 289 285 277 271 271 272 274 272 267 261 257 255 256 260 261 261 260 259 260 263 265 269 284 298 302 314 325 333 351 2 360 359 0 1 2 4 3 360 354 347 339 330 322 317 314 310 308 307 307 308 313 320 326 331 332 338 346 350 349 353 357 357
283 282 281 282 283 283 278 272 267 265 262 259 258 258 259 261 264 266 270 276 283 287 289 289 287 283 276 271 270 270 270 269 264 258 254 252 253 257 259 259 257 256 255 256 257 257 264 276 278 282 302 313 321 332 334 337 343 346 350 357 2 6 9 7 0 351 337 324 314 308 304 299 295 289 285 283 281 279 277 276 275 277 281 287 291 290
284 283 284 286 286 286 283 278 273 269 265 262 260 260 261 262 263 264 267 273 277 280 282 283 282 279 275 270 269 269 268 266 263 257 253 250 250 254 258 256 254 253 254 253 252 251 253 262 268 270 280 296 300 304 307 314 321 326 332 342 352 2 12 18 16 11 2 349 334 319 308 301 296 292 288 284 279 276 274 272 270 270 270 272 276 280